SPACEBEE-44 (47466 NORAD) Tracking and Keplerian Element Data

This shows tracking and keplerian element data for the satellite.

Feedback or suggestion? Click here.




ElementValue
Catalog47466
NameSPACEBEE-44
Epoch Orbit1255
Epoch Day105.68453818
Epoch Year2021
RAAN167.8665
Inclination97.493
Eccentricity0.0005861
Argument of Perigee339.6998
Mean Anonmoly20.3998
Mean Motion15.1197568
Decay Rate2.763E-05
L11 47466U 21006BF 21105.68453818 .00002763 00000-0 16473-3 0 9990
L22 47466 97.4930 167.8665 0005861 339.6998 20.3998 15.11975680 12554

Live tracking and technical data element details for SPACEBEE-44 (NORAD 47466). SPACEBEE-44 can be tracked NOW for your location showing map with azimuth and elevation plus other details from your city location.

Track the satellite on the map from your city or location and see movement details for azimuth, elevation, latitude, longitude, range, height, and movement on the map or in text.







IsCatalogInMostPopularTable: catalog: 47466, numindb: 14
Update: records affected: 1



GetName: 47466 SPACEBEE-44

Hit Count: updated at: Fri, 16 Apr 2021 12:20:05 GMT